Location: Poigny-la-Forêt
(48.6876°N, 1.7701°E)
Time: 06:50:26
(UTC+02:00)

ISS - Pass Details

Date: 26 March 2019
Orbit: 408 x 410 km, 51.6° (Epoch: 20 April)

Event Time Altitude Azimuth Distance (km) Brightness Sun altitude
Rises 20:57:25 0° 263° (W) 2,335 1.1 -17.2°
Reaches altitude 10° 20:59:31 10° 268° (W) 1,474 0.0 -17.5°
Maximum altitude 21:02:47 58° 349° (NNW) 485 -3.3 -18.0°
Enters shadow 21:03:47 38° 48° (NE) 644 -3.1 -18.2°
